NSTAR C

Satellite information

Favourite Embed

Satellite Type and Status

PAYLOADIN ORBIT

Key statistics

Satellite NSTAR C at a glance.

Uptime

8563

Days in orbit

Revolutions

≈ 1.0

Per day

Orbit

OTHER

Other

Inclination

10.7

Latest

Satellite identification and parameters

Extended collection of information and parameters for NSTAR C.

Object identification

Identified? True

Debris? False

Object name: NSTAR C

International designator: 2002-035B

Object number (NORAD): 27461

Object ID (CCSDS): 27461

Country: JAPAN (JPN)

Current information (Y/N): Y

RCS size: LARGE

Orbital parameters

Period: 1455.196 minutes

Inclination: 10.6726 deg

SMA: 42537.75 km

Apoapsis: 36212.411 km

Periapsis: 36106.82 km

RAAN: 45.7479 deg

Eccentricy: 0.00124114

Argument of periapsis: 200.0274 deg

Mean anomaly: 203.9869 deg

Mean motion: 0.98955738 rev/day

Mean motion (dot): -0.00000253 rev/day2

B* drag term: 0.0 1/REarth

Two-line elements (TLE)

Creation date: Dec. 14, 2025, 3:07 a.m.

Reference frame: TEME

Reference center: EARTH

Epoch: Dec. 13, 2025, 1:44 p.m. UTC

TLE line 0: 0 NSTAR C

TLE line 1: 1 27461U 02035B 25347.57258303 -.00000253 00000-0 00000-0 0 9995

TLE line 2: 2 27461 10.6726 45.7479 0012411 200.0274 203.9869 0.98955738 85604

Live tracking on map

Real-time ground track for satellite NSTAR C.

In-orbit conjunctions

There are no conjunctions computed for NSTAR C, at the moment. Check back to stay up to date, as we update our databases every day.

Go to all conjunctions

Associated space launch

Stellat 5 is a communications satellite belonging to Eutelsat, operating at 5 degrees West. N-Star C is a geostationary communications satellite operating at 136 degrees East.

NSTAR C was lifted into orbit during the mission ‘Ariane 5 G | Stellat 5 & N-Star C’, on board a Ariane 5 G space rocket.

The launch took place on July 5, 2002, 11:22 p.m. from Ariane Launch Area 3.

For more information about the launch, click the button.

Launch to space Ariane 5 G | Stellat 5 & N-Star C
Ariane 5 G | Stellat 5 & N-Star C

Agency: N/A

Status: Launch Successful

Launch date: July 5, 2002, 11:22 p.m. UTC

Rocket: Ariane 5 G

Launch pad: Ariane Launch Area 3

Location: Guiana Space Centre, French Guiana

...

Latest news about this satellite

News about space launch
Eutelsat 5 West A successfully retired in graveyard orbit

Eutelsat said Jan. 19 it retired a satellite last week that had helped Europe transition from analog to digital television two decades ago.


Newsletter sign-up

Weekly statistics, charts and insights to help you stay on top of the space industry.